Regional Weather Roundup
Issued by NWS

Home | Current Version | Previous Version | Text Only | Print | Product List | Glossary Off
Versions: 1 2 3 4 5 6 7 8 9 10 11 12 13 14 15 16 17 18 19 20 21 22 23 24 25 26 27 28 29 30 31 32 33 34 35 36 37 38 39 40 41 42 43 44 45 46 47 48 49 50

000
ASUS43 KMKX 060200
RWRWI

WISCONSIN REGIONAL WEATHER ROUNDUP
NATIONAL WEATHER SERVICE MILWAUKEE/SULLIVAN WI
900 PM CDT TUE MAY 05 2015

NOTE: "FAIR" INDICATES FEW OR NO CLOUDS BELOW 12,000 FEET WITH NO
SIGNIFICANT WEATHER AND/OR OBSTRUCTIONS TO VISIBILITY.

WIZ001-002-006>008-014>016-023>028-060300-
NORTHWEST WISCONSIN

CITY           SKY/WX    TMP DP  RH WIND       PRES   REMARKS
SUPERIOR ARPT  CLEAR     44  34  66 NE8       30.16S
ASHLAND        CLEAR     43  33  68 CALM      30.19R
HAYWARD        PTCLDY    63  28  26 S9        30.18R
SIREN          PTCLDY    64  30  27 SE8       30.15R
CUMBERLAND     MOCLDY    61  30  31 SE8       30.16S
RICE LAKE      PTCLDY    61  28  28 SE10      30.18S
CHETEK         PTCLDY    60  33  35 E8        30.18R
LADYSMITH      FAIR      61  30  31 SE6       30.21R
EAU CLAIRE     NOT AVBL
MENOMONIE      CLOUDY    61  44  53 SE12      30.17S
NEW RICHMOND   CLOUDY    62  44  51 SE8       30.15S
OSCEOLA        CLOUDY    62  44  51 SE7       30.16S
$$

WIZ003>005-009-010-017-018-060300-
NORTH CENTRAL WISCONSIN

CITY           SKY/WX    TMP DP  RH WIND       PRES   REMARKS
MANITOWISH WTR CLEAR     59  29  31 S6        30.21R
ARBOR VITAE    PTCLDY    60  25  26 S6        30.22R
WOODRUFF       PTCLDY    60  25  26 S6        30.22R
RHINELANDER    PTCLDY    58  25  28 S5        30.24R
EAGLE RIVER    PTCLDY    58  24  27 S6        30.23R
LAND O LAKES   CLEAR     60  29  30 S5        30.23R
PHILLIPS       PTCLDY    61  28  29 SE6       30.20R
TOMAHAWK       PTCLDY    53  30  40 CALM      30.23S
MEDFORD        MOCLDY    57  26  30 SE6       30.21S
MERRILL        MOCLDY    57  26  29 SE5       30.23S
$$

WIZ029-030-035-036-043>047-060300-
CENTRAL WISCONSIN

CITY           SKY/WX    TMP DP  RH WIND       PRES   REMARKS
WAUSAU         MOCLDY    59  17  19 SE10      30.21S
MOSINEE        PTCLDY    57  23  26 E5        30.24R
MARSHFIELD     CLOUDY    59  37  44 SE9       30.21S
STEVENS POINT  CLOUDY    57  32  39 E5        30.23R
WAUPACA        CLOUDY    59  46  60 SE5       30.23S
WAUTOMA        NOT AVBL
WISC RAPIDS    CLOUDY    59  36  42 SE8       30.23R
CAMP DOUGLAS   NOT AVBL
$$

WIZ011>013-019>022-031-037>040-048>050-060300-
NORTHEAST WISCONSIN

CITY           SKY/WX    TMP DP  RH WIND       PRES   REMARKS
ANTIGO         MOCLDY    52  31  44 SE7       30.24S
SHAWANO        CLOUDY    58  23  25 E3        30.25R
OCONTO         CLOUDY    54  33  45 CALM      30.25R
STURGEON BAY   CLOUDY    54  37  54 NE3       30.28R
GREEN BAY      CLOUDY    58  32  37 CALM      30.25R
MANITOWOC      NOT AVBL
APPLETON       MOCLDY    57  36  44 SE7       30.24S
CLINTONVILLE   CLOUDY    59  21  23 E5        30.24R
OSHKOSH        CLOUDY    55  46  71 CALM      30.24R
$$

WIZ032>034-041-042-053>061-060300-
SOUTHWEST WISCONSIN

CITY           SKY/WX    TMP DP  RH WIND       PRES   REMARKS
LA CROSSE      LGT RAIN  56  53  90 CALM      30.18S FOG
SPARTA         DRIZZLE   55  48  78 E7        30.20S
VIROQUA        CLOUDY    53  53 100 E13       30.18S
BOSCOBEL       CLOUDY    56  53  90 NE5       30.18F FOG
PRAIRIE DU CHI CLOUDY    55  54  97 E6        30.16S
PLATTEVILLE    CLOUDY    55  53  94 E13       30.17S
$$

WIZ056-057-062-063-064-067-068-060300-
SOUTH CENTRAL WISCONSIN

CITY           SKY/WX    TMP DP  RH WIND       PRES   REMARKS
REEDSBURG      LGT RAIN  53  51  92 E3        30.20R
BARABOO/DELLS  NOT AVBL
LONE ROCK      NOT AVBL
MINERAL POINT  CLOUDY    55  52  88 E9        30.18F
MADISON        CLOUDY    54  48  80 E12       30.21S
MIDDLETON      CLOUDY    55  50  85 E8        30.22R
WATERTOWN      CLOUDY    51  49  92 E5        30.22S
MONROE         CLOUDY    50  50 100 NE9       30.19S FOG
JANESVILLE     CLOUDY    52  48  87 E9        30.21R
$$

WIZ051-052-058>065-066-070>072-060300-
SOUTHEAST WISCONSIN

CITY           SKY/WX    TMP DP  RH WIND       PRES   REMARKS
MILWAUKEE      CLOUDY    46  41  82 NE5       30.25R
WAUKESHA       MOCLDY    48  45  87 E6        30.25R
MILWAUKEE/TIMM MOCLDY    48  43  81 CALM      30.26R
RACINE         CLOUDY    45  41  86 NE6       30.26R
BURLINGTON     CLOUDY    47  46  97 E8        30.23S
KENOSHA        CLOUDY    48  46  93 E10       30.24R
FOND DU LAC    CLOUDY    54  45  71 E3        30.24R
SHEBOYGAN      LGT RAIN  49  42  77 NE6       30.25R
WEST BEND      CLOUDY    50  45  81 E3        30.24S
JUNEAU         CLOUDY    51  46  81 E7        30.24S
$$

LSZ147-162-060300-
LAKE SUPERIOR

STATION/POSITION TIME  TEMP    WIND        PRES    WAVE
                       AIR SEA DIR/SP/G            HT/PER
                 (UTC) (F)     (DEG/KT/KT) (MB)    (FT/S)
W MID LAKE BUOY  0050   42 36   60/ 12/ 12 1022.6F   1
DEVILS ISLAND    0100   47     120/ 11/ 13 1022.0F
PORT WING        0140   42      30/  6/  8 1021.7R
SAXON HARBOR     0100   49     290/  2/  4 1021.0S
$$

LMZ867-665-643>646-060300-
LAKE MICHIGAN

STATION/POSITION TIME  TEMP    WIND        PRES    WAVE
                       AIR SEA DIR/SP/G            HT/PER
                 (UTC) (F)     (DEG/KT/KT) (MB)    (FT/S)
CHAMBERS ISLAND  0100   48      CALM  /  1 1024.4F
NORTHPORT PIER   0100   49     310/  2/  4 1024.4R
SISTER BAY       0102   47        CALM       N/A
KEWAUNEE LAKESHO 0100   48      40/  6/  7 1023.4R
SHEBOYGAN LAKESH 0100   44      20/  3/  3 1025.0S
PORT WASHINGTON  0140   46      50/  4/  6 1025.1R
ATWATER BUOY     0100   44      20/  6/  8 1025.3R
MILWAUKEE LAKESH 0100   47      40/  4/  5   N/A
KENOSHA   LAKESH 0100   45      30/  8/ 11 1023.7S
$$

TC  - TEMPERATURE IN CELSIUS
VSB - VISIBILITY IN STATUTE MILES
WCI - WIND CHILL INDEX
HX  - HEAT INDEX



USA.gov is the U.S. government's official web portal to all federal, state and local government web resources and services.